Farmville, VA

9:28 AM EST on February 27, 2017 (GMT -0500)
Farmville Regional

Weather History for KFVX - June, 2013

Change the Weather History Date:

Monday, June 10, 2013

  Actual Average Record
Temperature  
Mean Temperature 76 °F -  
Max Temperature 84 °F 84 °F 98 °F (1963)
Min Temperature 69 °F 59 °F 42 °F (1997)
Cooling Degree Days 12    
Growing Degree Days 26 (Base 50)    
Moisture  
Dew Point 71 °F    
Average Humidity 88    
Maximum Humidity 100    
Minimum Humidity 55    
Precipitation  
Precipitation 0.53 in - - ()
Sea Level Pressure  
Sea Level Pressure 29.96 in    
Wind  
Wind Speed 7 mph (SSW)    
Max Wind Speed 17 mph    
Max Gust Speed 28 mph    
Visibility 8 miles    
Events Rain , Thunderstorm    
Averages and records for this station are not official NWS values.
T = Trace of Precipitation, MM = Missing Value Source: NWS Daily Summary

Daily Weather History Graph

Daily Weather History Graph

Search for Another Location

Airport or City:

Trip Planner

Search our weather history database for the weather conditions in past years. The results will help you decide how hot, cold, wet, or windy it might be!

Date:

Astronomy

Jun. 10, 2013 Rise Set
Actual Time 5:52 AM EDT 8:34 PM EDT
Civil Twilight 5:21 AM EDT 9:05 PM EDT
Nautical Twilight 4:43 AM EDT 9:43 PM EDT
Astronomical Twilight 3:59 AM EDT 10:27 PM EDT
Moon 7:37 AM EDT (6/10) 10:01 PM EDT (6/10)
Length of Visible Light 15h 43m
Length of Day
14h 41m
Waxing Crescent, 4% of the Moon is Illuminated
Jun 10
Waxing Crescent
Jun 16
First Quarter
Jun 23
Full
Jun 30
Last Quarter
Jul 8
New

Hourly Weather History & Observations

Time (EDT) Temp. Heat Index Dew Point Humidity Pressure Visibility Wind Dir Wind Speed Gust Speed Precip Events Conditions
12:15 AM 73.4 °F - 69.8 °F 88% 30.10 in 3.0 mi South 15.0 mph 18.4 mph 0.35 in Rain Heavy Rain
12:35 AM 73.4 °F - 71.6 °F 94% 30.10 in 4.0 mi SSW 9.2 mph - 0.73 in Rain Heavy Rain
12:55 AM 71.6 °F - 69.8 °F 94% 30.09 in 10.0 mi SW 9.2 mph - 0.03 in Rain Rain
1:15 AM 71.6 °F - 69.8 °F 94% 30.09 in 10.0 mi SW 3.5 mph - 0.09 in Rain Rain
1:35 AM 71.6 °F - 69.8 °F 94% 30.08 in 7.0 mi Calm Calm - 0.14 in Rain Rain
1:55 AM 71.6 °F - 69.8 °F 94% 30.07 in 10.0 mi Calm Calm - 0.01 in Rain Light Rain
2:15 AM 71.6 °F - 69.8 °F 94% 30.07 in 7.0 mi Calm Calm - 0.01 in   Light Drizzle
2:35 AM 71.6 °F - 69.8 °F 94% 30.06 in 3.0 mi Calm Calm - 0.02 in Rain Rain
2:55 AM 71.6 °F - 69.8 °F 94% 30.06 in 5.0 mi Calm Calm - N/A   Mostly Cloudy
3:15 AM 71.6 °F - 69.8 °F 94% 30.06 in 3.0 mi Calm Calm - N/A Rain Light Rain
3:35 AM 71.6 °F - 69.8 °F 94% 30.05 in 4.0 mi Calm Calm - N/A   Overcast
3:55 AM 71.6 °F - 71.6 °F 100% 30.05 in 3.0 mi SSE 3.5 mph - N/A   Overcast
4:15 AM 71.6 °F - 69.8 °F 94% 30.04 in 3.0 mi Calm Calm - N/A   Overcast
4:35 AM 71.6 °F - 71.6 °F 100% 30.03 in 4.0 mi Calm Calm - N/A   Overcast
4:55 AM 71.6 °F - 71.6 °F 100% 30.03 in 4.0 mi Calm Calm - N/A   Overcast
5:15 AM 71.6 °F - 71.6 °F 100% 30.03 in 5.0 mi Calm Calm - N/A   Overcast
5:35 AM 71.6 °F - 71.6 °F 100% 30.03 in 4.0 mi Calm Calm - N/A   Overcast
5:55 AM 71.6 °F - 71.6 °F 100% 30.03 in 4.0 mi Calm Calm - N/A   Overcast
6:15 AM 71.6 °F - 71.6 °F 100% 30.03 in 3.0 mi SSE 3.5 mph - N/A   Overcast
6:35 AM 73.4 °F - 71.6 °F 94% 30.03 in 4.0 mi South 4.6 mph - N/A   Light Drizzle
6:55 AM 73.4 °F - 71.6 °F 94% 30.02 in 5.0 mi SSE 3.5 mph - N/A   Light Drizzle
7:15 AM 73.4 °F - 71.6 °F 94% 30.02 in 5.0 mi SSE 4.6 mph - N/A   Overcast
7:35 AM 73.4 °F - 71.6 °F 94% 30.02 in 7.0 mi South 4.6 mph - N/A   Overcast
7:55 AM 73.4 °F - 73.4 °F 100% 30.02 in 7.0 mi South 4.6 mph - N/A   Light Drizzle
8:15 AM 73.4 °F - 73.4 °F 100% 30.02 in 7.0 mi South 4.6 mph - 0.01 in Rain Light Rain
8:35 AM 75.2 °F - 73.4 °F 94% 30.01 in 7.0 mi SSE 5.8 mph - 0.01 in   Overcast
8:55 AM 75.2 °F - 73.4 °F 94% 30.01 in 10.0 mi South 5.8 mph - N/A   Overcast
9:15 AM 75.2 °F - 73.4 °F 94% 30.01 in 10.0 mi South 9.2 mph - N/A   Light Drizzle
9:35 AM 75.2 °F - 73.4 °F 94% 30.01 in 10.0 mi South 8.1 mph - N/A   Overcast
9:55 AM 77.0 °F - 73.4 °F 89% 30.00 in 10.0 mi South 11.5 mph - N/A   Overcast
10:15 AM 77.0 °F - 73.4 °F 89% 30.00 in 10.0 mi South 11.5 mph 17.3 mph N/A   Overcast
10:35 AM 78.8 °F - 73.4 °F 83% 29.99 in 10.0 mi South 12.7 mph - N/A   Overcast
10:55 AM 78.8 °F - 73.4 °F 83% 29.99 in 10.0 mi SSW 11.5 mph - N/A   Overcast
11:15 AM 78.8 °F - 73.4 °F 83% 29.98 in 10.0 mi South 12.7 mph 17.3 mph N/A Rain Light Rain
11:35 AM 78.8 °F - 73.4 °F 83% 29.98 in 10.0 mi SSW 12.7 mph 18.4 mph N/A   Mostly Cloudy
11:55 AM 78.8 °F - 73.4 °F 83% 29.97 in 7.0 mi SSW 9.2 mph 16.1 mph N/A Rain Rain
12:15 PM 78.8 °F - 75.2 °F 89% 29.96 in 10.0 mi SSW 9.2 mph - N/A Rain Light Rain
12:35 PM 78.8 °F - 73.4 °F 83% 29.95 in 10.0 mi South 13.8 mph 18.4 mph N/A Rain Light Rain
12:55 PM 80.6 °F 85.4 °F 73.4 °F 79% 29.94 in 10.0 mi SSW 13.8 mph 21.9 mph N/A   Mostly Cloudy
1:15 PM 80.6 °F 85.4 °F 73.4 °F 79% 29.93 in 10.0 mi SSW 12.7 mph 19.6 mph N/A Thunderstorm Overcast
1:35 PM 82.4 °F 88.2 °F 73.4 °F 74% - 10.0 mi SSW 15.0 mph - N/A   Mostly Cloudy
1:55 PM 82.4 °F 88.2 °F 73.4 °F 74% 29.91 in 10.0 mi SSW 10.4 mph 23.0 mph N/A   Mostly Cloudy
2:15 PM 82.4 °F 88.2 °F 73.4 °F 74% 29.90 in 10.0 mi South 15.0 mph 21.9 mph N/A   Mostly Cloudy
2:35 PM 84.2 °F 90.9 °F 73.4 °F 70% 29.89 in 10.0 mi SSW 12.7 mph - N/A   Mostly Cloudy
2:55 PM 84.2 °F 90.9 °F 73.4 °F 70% 29.88 in 10.0 mi SSW 12.7 mph 26.5 mph N/A   Mostly Cloudy
3:15 PM 82.4 °F 87.2 °F 71.6 °F 70% 29.86 in 10.0 mi SSW 9.2 mph 19.6 mph N/A   Mostly Cloudy
3:35 PM 82.4 °F 87.2 °F 71.6 °F 70% 29.86 in 10.0 mi SSW 11.5 mph 19.6 mph N/A   Overcast
3:55 PM 82.4 °F 87.2 °F 71.6 °F 70% 29.86 in 10.0 mi South 17.3 mph 21.9 mph N/A   Overcast
4:15 PM 84.2 °F 86.6 °F 66.2 °F 55% 29.85 in 10.0 mi SSW 17.3 mph 26.5 mph N/A   Scattered Clouds
4:35 PM 84.2 °F 86.6 °F 66.2 °F 55% 29.84 in 10.0 mi SSW 17.3 mph 27.6 mph N/A   Scattered Clouds
4:55 PM 82.4 °F 84.6 °F 66.2 °F 58% 29.84 in 10.0 mi SSW 11.5 mph 19.6 mph N/A   Scattered Clouds
5:15 PM 82.4 °F 85.4 °F 68.0 °F 62% 29.83 in 10.0 mi South 9.2 mph - N/A Rain , Thunderstorm Light Thunderstorms and Rain
5:35 PM 78.8 °F - 73.4 °F 83% 29.84 in 7.0 mi SSW 10.4 mph 19.6 mph 0.01 in Rain , Thunderstorm Light Thunderstorms and Rain
5:55 PM 77.0 °F - 68.0 °F 74% 29.84 in 10.0 mi South 10.4 mph 20.7 mph N/A Thunderstorm Thunderstorm
6:15 PM 71.6 °F - 69.8 °F 94% 29.83 in 1.8 mi Calm Calm - 0.25 in Rain , Thunderstorm Heavy Thunderstorms and Rain
6:35 PM 71.6 °F - 71.6 °F 100% 29.88 in 10.0 mi SW 11.5 mph 25.3 mph 0.28 in Rain , Thunderstorm Light Thunderstorms and Rain
6:55 PM 69.8 °F - 66.2 °F 88% 29.87 in 10.0 mi West 8.1 mph - 0.03 in Rain Light Rain
7:15 PM 69.8 °F - 66.2 °F 88% 29.87 in 10.0 mi Calm Calm - 0.03 in Rain Light Rain
7:35 PM 69.8 °F - 68.0 °F 94% 29.88 in 10.0 mi Calm Calm - 0.03 in   Overcast
7:55 PM 69.8 °F - 68.0 °F 94% 29.88 in 10.0 mi Calm Calm - N/A   Overcast
8:15 PM 69.8 °F - 68.0 °F 94% 29.88 in 10.0 mi South 3.5 mph - 0.01 in   Mostly Cloudy
8:35 PM 69.8 °F - 69.8 °F 100% 29.87 in 10.0 mi Calm Calm - 0.01 in   Mostly Cloudy
8:55 PM 69.8 °F - 69.8 °F 100% 29.87 in 10.0 mi SSE 3.5 mph - N/A   Overcast
9:15 PM 71.6 °F - 69.8 °F 94% 29.87 in 10.0 mi South 4.6 mph - N/A   Overcast
9:35 PM 71.6 °F - 71.6 °F 100% 29.87 in 10.0 mi SSW 6.9 mph - N/A   Overcast
9:55 PM 73.4 °F - 71.6 °F 94% 29.87 in 10.0 mi South 8.1 mph - N/A   Mostly Cloudy
10:15 PM 71.6 °F - 71.6 °F 100% 29.87 in 10.0 mi SSW 5.8 mph - N/A   Scattered Clouds
10:35 PM 73.4 °F - 71.6 °F 94% 29.88 in 10.0 mi SSW 5.8 mph - N/A   Clear
10:55 PM 71.6 °F - 69.8 °F 94% 29.88 in 10.0 mi SSW 5.8 mph - N/A   Clear
11:15 PM 71.6 °F - 69.8 °F 94% 29.89 in 10.0 mi SSW 5.8 mph - N/A   Scattered Clouds
11:35 PM 71.6 °F - 69.8 °F 94% 29.89 in 10.0 mi SSW 4.6 mph - N/A   Scattered Clouds
11:55 PM 71.6 °F - 69.8 °F 94% 29.89 in 10.0 mi SSW 5.8 mph - N/A   Clear